Погода Покровская

Погода Покровская : погода сейчас, прогноз погоды и архив. Всё, что Вы хотите узнать о погоде Покровская!

Хотите узнать прогноз погоды Покровская? Тогда Вам сюда: Погода Покровская

Поиск расширенной информации на нашем сайте:

Другие новости

Новости СМИ2

Главная страница сайта

Новости сайта

03.07.2017

Напоминаем, что на нашем специализированном сайте Метеоцентр.Азия вы можете получить высокодетализированные автоматические прогнозы погоды по пунктам России, СНГ и мира в авиационном формате (включающие направление и скорость ветра, видимость, явления погоды, количество и форму облачности, нижнюю и верхнюю границу облачности).


Погода Покровская - сегодня

Время (UTC), дата Ветер
(°,м/с) 
Видим.   Явления Облачность Т
(°С)
Тd
(°С)
f(%) Тe
(°С)
Pmin
(гПа)
dP
(гПа)
Po
(мм)
O2
(г/м3)
Тmin Tmax R s Состояние
почвы
12 23.07.17 300 (СЗ) 20000 м    3/0 верхняя 
[Ci fib]
+15.8 +8.6 62 +17  1006  0.5  744  282    +21.4       
15 23.07.17 260 (З) 20000 м    4/0 верхняя 
[Ci fib]
+9.2 +6.9 86 +9  1006.8  0.4  744  289           
18 23.07.17 260 (З) 20000 м    3/0 верхняя 
[Ci fib]
+5 +3.6 91 +6  1007  744  294           
21 23.07.17 250 (З) 20000 м    10/6 600 м верхняя 
[Sc|Ci fib]
+7.2 +4.9 85 +8  1007.3  0.3  744  291           
00 24.07.17 200 (Ю) 20000 м  дым  3/0 верхняя 
[Ci fib]
+14.4 +9.3 71 +14  1007.3  0.4  745  283  +4.2        сухая 
03 24.07.17 210 (ЮЗ) 10 км  дым  4/4 600 м 
[Sc]
+19.2 +11.6 61 +24  1006.2  -0.8  744  278           
06 24.07.17 340 (С) 10 км  гроза, ливневой дождь  9/9 600 м средняя 
[As op]
+14.7 +12.7 88 +19  1006.3  -0.1  744  282           
09 24.07.17 210 (ЮЗ) 20000 м  {гроза, ливн. осадки}  9/9 600 м 
[Sc]
+14.9 +12.7 87 +21  1006.6  0.3  744  282           
12 24.07.17 240 (ЮЗ) 20000 м  {гроза, ливн. осадки}  9/9 600 м 
[Sc]
+14.3 +13 92 +22  1007.1  0.4  745  282    +20.1     
15 24.07.17 230 (ЮЗ) 20000 м    9/9 600 м 
[Sc]
+13.4 +12.5 94 +20  1007.5  0.4  745  284           
18 24.07.17 270 (З) 20000 м    9/9 600 м 
[Sc]
+12.5 +11.8 95 +18  1007.3  -0.3  745  285           
21 24.07.17 270 (З) 20000 м    9/9 600 м 
[Sc]
+12.8 +11.9 94 +18  1007.4  0.1  745  284           
00 25.07.17 300 (СЗ) 20000 м  слаб. дождь  10/10 600 м 
[Ns]
+13.6 +12.5 93 +19  1008.1  0.8  745  284  +11.7    0.5    влажная 
03 25.07.17 120 (ЮВ) 20000 м  {дождь}  10/10 1110 м 
[Sc]
+14.7 +13.3 91 +21  1008  -0.1  745  282           
06 25.07.17 150 (ЮВ) 20000 м  {дождь}  8/6 600 м кучево-дожд., средняя 
[Cb calv|Ac trans]
+16.1 +14.2 88 +24  1007.5  -0.4  745  281           
09 25.07.17 200 (Ю) 20000 м    8/6 600 м кучево-дожд., верхняя 
[Cb calv|Ci sp]
+16.9 +13.2 79 +23  1006.9  -0.6  745  280           
12 25.07.17 300 (СЗ) 20000 м    8/8 600 м 
[Sc diur, vesp]
+17.4 +11.6 69 +21  1006.8  -0.1  744  280    +19.1  0.6     
15 25.07.17 250 (З) 20000 м    6/6 600 м 
[Sc]
+11.4 +10 91 +13  1007.2  0.1  745  286           
18 25.07.17 230 (ЮЗ) 20000 м    8/8 600 м 
[Sc]
+9.6 +8.4 92 +11  1007.1  -0.2  744  288           
21 25.07.17 240 (ЮЗ) 20000 м    8/8 600 м 
[Sc]
+11.6 +9.4 86 +13  1006.8  -0.1  744  286           
00 26.07.17 190 (Ю) 20000 м    10/4 600 м средняя, верхняя 
[Sc|Ac trans|Ci fib]
+15.3 +10.6 74 +18  1006.5  -0.1  744  282  +9        влажная 
03 26.07.17 240 (ЮЗ) 20000 м    9/8 600 м средняя 
[Cu Sc|Ac trans]
+19.6 +9.9 53 +22  1005.7  -0.6  744  278           
06 26.07.17 210 (ЮЗ) 20000 м    8/6 600 м средняя 
[Cu Sc|Ac trans]
+21 +10.4 51 +23  1004.7  -0.9  743  276           
09 26.07.17 220 (ЮЗ) 20000 м    6/4 600 м верхняя 
[Cu Sc|Ci fib]
+20.9 +8.6 45 +21  1004  -0.7  743  276           
12 26.07.17 240 (ЮЗ) 20000 м    3/0 верхняя 
[Ci fib]
+16.6 +9.5 63 +19  1004.3  0.1  743  280    +22.9       
Время (UTC), дата Ветер
(°,м/с) 
Видим.   Явления Облачность Т
(°С)
Тd
(°С)
f(%) Тe
(°С)
Pmin
(гПа)
dP
(гПа)
Po
(мм)
O2
(г/м3)
Тmin Tmax R s Состояние
почвы

Для получения пояснительной информации подведите курсор к названию столбца.

ПОГОДА Покровская - архив

Всё, что Вы хотите узнать о погоде Покровская - удобно и подробно!

Выберите нужную дату (начиная с 1 января 2015* года) и нажмите кнопку "Найти".
Будут отображены архивные сводки погоды по пункту Покровская, начиная с указанной даты.


Отображать данные в формате CSV (для использования в таблицах Excel)


Внимание! Наш архив погоды предназначен исключительно для личного некоммерческого использования в познавательных целях. Если Вам необходимы официальные справки о состоянии погоды (для производственных, юридических, коммерческих и т.п. целей), обращайтесь в органы Росгидромета.

*Примечание: данная дата относится к архиву по метеостанциям СССР (Россия, СНГ, Балтия).
Архив по метеостанциям Зарубежной Европы и Азии (кроме Китая) хранится 10 дней, по другим регионам земного шара (Китай, Африка, Америка, Австралия, Океания) - 1 день.

Покровская - район местоположения метеостанции


Название, широта, долгота, высота метеостанции:
Покровская 61.5°ш. 129.2°д. 115 м над ур. моря [Российская Федерация]

Дополнительная информация

В oтличие oт бoльшинства пoгoдных сайтoв мы публикуем пoдрoбную метеoинфoрмацию в детальнoм прoфессиoнальнoм фoрмате.

Характеристики температуры и влажнoсти вoздуха измеряются на высoте 2 м в тени вдали oт зданий и деревьев.
Скoрoсть ветра измеряется на высoте 10 м (на урoвне рoста челoвека скoрoсть ветра ниже в 1.5-2 раза). Если метеoстанция нахoдится в гoрoде или в лесу, тo скoрoсть ветра занижена на 2-4 м/с пo сравнению с oткрытым местoм. Скoрoсть ветра над акватoриями крупных рек и oзёр, а также на вершинах хoлмoв на 2-5 м/с выше, чем в oбычных услoвиях.
Атмoсфернoе давление в разных тoчках местнoсти мoжет значительнo oтличаться oт давления на метеoстанции, в зависимoсти oт услoвий рельефа (при пoдъёме на 10 м давление пoнижается примернo на 1 мм рт.ст.).